Regional Weather Roundup
Issued by NWS

Home | Current Version | Previous Version | Text Only | Print | Product List | Glossary Off
Versions: 1 2 3 4 5 6 7 8 9 10 11 12 13 14 15 16 17 18 19 20 21 22 23 24 25 26 27 28 29 30 31 32 33 34 35 36 37 38 39 40 41 42 43 44 45 46 47 48 49 50

000
ASUS43 KLOT 021403
RWRIL

ILLINOIS REGIONAL WEATHER ROUNDUP
NATIONAL WEATHER SERVICE CHICAGO/ROMEOVILLE IL
800 AM CST FRI DEC 02 2016

NOTE: "FAIR" INDICATES FEW OR NO CLOUDS BELOW 12,000 FEET WITH NO
SIGNIFICANT WEATHER AND/OR OBSTRUCTIONS TO VISIBILITY.

* THESE STATIONS ARE NOT UNDER NWS QUALITY CONTROL. THEY ALSO MAY NOT
  REPORT WEATHER SUCH AS PRECIPITATION OR FOG.

ILZ001-002-007-009-015-016-024-021500-
NORTHWEST ILLINOIS

CITY           SKY/WX    TMP DP  RH WIND       PRES   REMARKS
MOLINE         CLOUDY    38  32  79 W7        30.17R WCI  33
STERLING*      CLOUDY    36  35  96 W8        30.17R WCI  30
SAVANNA*       PTCLDY    36  33  87 W6        30.16R WCI  31
$$

ILZ003-004-008-010-011-017-018-021500-
NORTH CENTRAL ILLINOIS

CITY           SKY/WX    TMP DP  RH WIND       PRES   REMARKS
ROCKFORD       CLOUDY    37  32  82 W8        30.15R WCI  31
FREEPORT*      CLOUDY    35  33  93 W9        30.15R WCI  27
ROCHELLE*      CLOUDY    36  34  93 W9        30.14R WCI  29
$$

ILZ005-006-012>014-019>023-021500-
NORTHEAST ILLINOIS

CITY           SKY/WX    TMP DP  RH WIND       PRES   REMARKS
CHICAGO-OHARE  CLOUDY    37  31  78 W9        30.11R WCI  30
CHICAGO-MIDWAY CLOUDY    38  31  76 W9        30.13R WCI  31
AURORA         CLOUDY    38  33  82 SW7       30.14R WCI  33
JOLIET*        CLOUDY    38  36  92 W5        30.15R WCI  35
WAUKEGAN       CLOUDY    35  31  85 VRB5      30.11R WCI  31
DUPAGE AIRPORT CLOUDY    37  31  78 W8        30.12R WCI  31
KANKAKEE*      CLOUDY    37  33  87 W9        30.16R WCI  30
WHEELING       CLOUDY    38  31  76 W7        30.13R WCI  33
MORRIS*        CLOUDY    37  35  92 W6        30.15R WCI  32
ROMEOVILLE*    CLOUDY    36  36 100 W8        30.14R WCI  30
$$

LMZ740>746-021500-
SOUTHERN LAKE MICHIGAN

STATION/POSITION SKY/WX   TEMP    WIND        PRES    VSBY  WAVE
                          AIR SEA DIR/SP/G                  HT/PER
                          (F)     (DEG/KT/KT) (MB)    (MI)  (FT/S)
SOUTHERN BUOY              39 49  310/ 19/ 23 1017.8          4/ 5
HARRISON CRIB              40     260/ 13/ 15   N/A
CALUMET HARBOR             38     240/  5/  6 1019.3R
BURNS HARBOR               40     260/ 12/ 16 1020.0R
MICHIGAN CITY              39     270/ 19/ 24   N/A
$$

ILZ025>027-034>036-040-047-049-050-058-095>099-021500-
WEST-CENTRAL ILLINOIS

CITY           SKY/WX    TMP DP  RH WIND       PRES   REMARKS
QUINCY         CLOUDY    30  27  88 SW6       30.22R FOG     WCI  24
GALESBURG*     CLOUDY    35  32  88 W7        30.18R WCI  29
MACOMB*        CLOUDY    36  32  86 W8        30.22R WCI  30
JACKSONVILLE*  CLOUDY    31  28  88 SW8       30.22R WCI  24
PITTSFIELD*    PTCLDY    30  27  88 W3        30.24R
$$

ILZ028>032-037-038-041>044-048-051>054-059>061-021500-
CENTRAL ILLINOIS

CITY           SKY/WX    TMP DP  RH WIND       PRES   REMARKS
PONTIAC        CLOUDY    37  36  94 W8        30.18R WCI  31
DECATUR        CLOUDY    37  30  75 W8        30.20R WCI  31
PEORIA         CLOUDY    37  32  82 W7        30.19R WCI  32
LACON*         CLOUDY    36  32  85 W6        30.17R WCI  31
LINCOLN*       CLOUDY    38  32  79 W5        30.20R WCI  34
SPRINGFIELD    CLOUDY    36  30  79 W8        30.21R WCI  30
TAYLORVILLE    CLOUDY    33  30  89 W7        30.22R WCI  27
$$

ILZ033-039-045-046-055>057-062-063-021500-
EAST-CENTRAL ILLINOIS

CITY           SKY/WX    TMP DP  RH WIND       PRES   REMARKS
CHAMPAIGN      CLOUDY    37  31  78 W6        30.18R WCI  32
RANTOUL*       CLOUDY    38  34  85 W7        30.18R WCI  32
MATTOON        CLOUDY    35  29  78 W6        30.19R WCI  30
PARIS*         CLOUDY    36  33  88 W8        30.20R WCI  29
$$

ILZ079-100>102-021500-
SOUTHWEST ILLINOIS

CITY           SKY/WX    TMP DP  RH WIND       PRES   REMARKS
ALTON          CLEAR     28  28 100 CALM      30.24R
BELLEVILLE     CLEAR     28  28  99 CALM      30.24R
CAHOKIA*       CLEAR     29  25  85 CALM      30.25R
SPARTA*        PTCLDY    31  27  82 CALM      30.25R
$$

ILZ064>066-069>071-074>076-080>082-084>086-088>090-092>094-021500-
SOUTH-CENTRAL ILLINOIS

CITY           SKY/WX    TMP DP  RH WIND       PRES   REMARKS
CARBONDALE     CLEAR     28  27  96 CALM      30.25R
CAIRO*         SUNNY     29  29  99 CALM      30.26R
EFFINGHAM*     CLOUDY    32  32 100 S3        30.23R FOG
MARION         SUNNY     32  30  93 CALM      30.25R
CENTRALIA*     CLEAR     30  30  99 CALM      30.23R FOG
SALEM*         CLEAR     30  28  92 CALM      30.23R FOG
METROPOLIS*    SUNNY     29  29  96 CALM      30.26R
$$

ILZ067-068-072-073-078-083-087-091-021500-
SOUTHEAST ILLINOIS

CITY           SKY/WX    TMP DP  RH WIND       PRES   REMARKS
LAWRENCEVILLE  SUNNY     30  28  92 W3        30.23R
FLORA*         PTCLDY    30  28  93 CALM      30.24R FOG
FAIRFIELD*     MOSUNNY   28  28  99 CALM      30.23R FOG
HARRISBURG*    SUNNY     30  29  98 CALM      30.25R
ROBINSON*      CLOUDY    32  30  92 W5        30.23R WCI  27
CARMI*         MOSUNNY   28  28  98 CALM      30.23R FOG
$$

ABBREVIATIONS USED IN REMARKS
   TC - TEMPERATURE IN CELSIUS
  WCI - WIND CHILL INDEX
   HX - HEAT INDEX
  VSB - VISIBILITY
$$





USA.gov is the U.S. government's official web portal to all federal, state and local government web resources and services.